Location: Mentone
(34.5413°N, 85.5351°W)
Time: 03:43:14
(UTC-05:00)

ADEOS Rocket - Visible Passes

Search period start: 27 April 2018 00:00
Search period end: 07 May 2018 00:00
Orbit: 859 x 1306 km, 98.8° (Epoch: 26 April)

Date Brightness Start Highest point End Pass type
(mag) Time Alt. Az. Time Alt. Az. Time Alt. Az.
27 Apr 4.8 01:31:43 10° N 01:34:58 23° NW 01:34:58 23° NW visible
28 Apr 4.6 00:42:06 10° N 00:45:23 31° N 00:45:23 31° N visible
28 Apr 4.9 23:53:27 10° NNE 23:55:48 22° NE 23:55:48 22° NE visible
29 Apr 4.9 01:39:38 10° NNW 01:42:45 21° NW 01:42:45 21° NW visible
30 Apr 4.5 00:49:48 10° N 00:53:10 32° N 00:53:10 32° N visible
01 May 4.7 00:00:59 10° NNE 00:03:34 25° NE 00:03:34 25° NE visible
01 May 5.0 01:47:36 10° NNW 01:50:32 19° NW 01:50:32 19° NW visible
01 May 5.3 23:13:31 10° NE 23:13:59 11° NE 23:13:59 11° NE visible
02 May 4.5 00:57:31 10° N 01:00:56 31° NNW 01:00:56 31° NNW visible
03 May 4.6 00:08:31 10° NNE 00:11:20 27° NNE 00:11:20 27° NNE visible
03 May 5.1 01:55:41 10° NNW 01:58:17 16° NW 01:58:17 16° NW visible
03 May 5.2 23:20:43 10° NE 23:21:44 14° NE 23:21:44 14° NE visible
04 May 4.5 01:05:16 10° N 01:08:42 30° NNW 01:08:42 30° NNW visible
05 May 4.5 00:16:05 10° NNE 00:19:06 30° NNE 00:19:06 30° NNE visible
05 May 5.1 02:03:54 10° NNW 02:06:03 13° NW 02:06:03 13° NW visible
05 May 5.0 23:28:01 10° NE 23:29:29 16° NE 23:29:29 16° NE visible
06 May 4.5 01:13:02 10° N 01:16:27 28° NNW 01:16:27 28° NNW visible
